Litchfield, MN

11:36 AM CST on November 20, 2019 (GMT -0600)
Litchfield Municipal

Weather History for KLJF - September, 2019

Change the Weather History Date:

Friday, September 20, 2019

  Actual Average Record
Temperature  
Mean Temperature 76 °F -  
Max Temperature 87 °F 69 °F 92 °F (1984)
Min Temperature 64 °F 47 °F 29 °F (1973)
Cooling Degree Days 10    
Growing Degree Days 26 (Base 50)    
Moisture  
Dew Point 70 °F    
Average Humidity 84    
Maximum Humidity 100    
Minimum Humidity 58    
Precipitation  
Precipitation 0.00 in - - ()
Sea Level Pressure  
Sea Level Pressure 29.97 in    
Wind  
Wind Speed 6 mph ()    
Max Wind Speed 14 mph    
Max Gust Speed 18 mph    
Visibility 9.0 miles    
Events      
Averages and records for this station are not official NWS values.
T = Trace of Precipitation, MM = Missing Value Source: Averaged Metar Reports

Daily Weather History Graph

Daily Weather History Graph

Search for Another Location

Airport or City:

Astronomy

Sep. 20, 2019 Rise Set
Actual Time 7:02 AM CDT 7:19 PM CDT
Civil Twilight 6:33 AM CDT 7:49 PM CDT
Nautical Twilight 5:58 AM CDT 8:23 PM CDT
Astronomical Twilight 5:22 AM CDT 8:59 PM CDT
Moon 10:53 PM CDT 1:23 PM CDT
Length of Visible Light 13h 16m
Length of Day
12h 17m
Waning Gibbous, 65% of the Moon is Illuminated
Sep 20
Waning Gibbous
Sep 21
Last Quarter
Sep 28
New
Oct 5
First Quarter
Oct 13
Full

Hourly Weather History & Observations

Time (CDT) Temp. Heat Index Dew Point Humidity Pressure Visibility Wind Dir Wind Speed Gust Speed Precip Events Conditions
12:15 AM 66.2 °F - 64.4 °F 94% 30.03 in 10.0 mi ESE 3.5 mph - N/A   Scattered Clouds
12:35 AM 66.2 °F - 64.4 °F 94% 30.03 in 10.0 mi SE 3.5 mph - N/A   Scattered Clouds
12:36 AM 66.2 °F - 64.4 °F 94% 30.03 in 10.0 mi SE 3.5 mph - N/A   Scattered Clouds
12:58 AM 64.4 °F - 62.6 °F 94% 30.03 in 10.0 mi ESE 3.5 mph - N/A   Clear
1:16 AM 66.2 °F - 64.4 °F 94% 30.03 in 10.0 mi SE 3.5 mph - N/A   Clear
1:36 AM 66.2 °F - 64.4 °F 94% 30.04 in 10.0 mi ESE 3.5 mph - N/A   Clear
1:55 AM 66.2 °F - 66.2 °F 100% 30.04 in 10.0 mi SE 3.5 mph - N/A   Clear
2:15 AM 66.2 °F - 66.2 °F 100% 30.04 in 10.0 mi SE 3.5 mph - N/A   Clear
2:20 AM 66.2 °F - 66.2 °F 100% 30.04 in 10.0 mi SE 4.6 mph - N/A   Clear
2:37 AM 66.2 °F - 66.2 °F 100% 30.04 in 10.0 mi SE 4.6 mph - N/A   Clear
2:55 AM 66.2 °F - 66.2 °F 100% 30.04 in 10.0 mi SE 4.6 mph - N/A   Clear
3:15 AM 66.2 °F - 64.4 °F 94% 30.04 in 10.0 mi Calm Calm - N/A   Clear
3:16 AM 66.2 °F - 64.4 °F 94% 30.04 in 10.0 mi Calm Calm - N/A   Clear
3:35 AM 64.4 °F - 64.4 °F 100% 30.04 in 7.0 mi SE 3.5 mph - N/A   Clear
3:36 AM 64.4 °F - 64.4 °F 100% 30.04 in 7.0 mi SE 3.5 mph - N/A   Clear
3:58 AM 66.2 °F - 66.2 °F 100% 30.03 in 10.0 mi SE 4.6 mph - N/A   Scattered Clouds
4:16 AM 66.2 °F - 66.2 °F 100% 30.03 in 7.0 mi SE 4.6 mph - N/A   Clear
4:36 AM 66.2 °F - 66.2 °F 100% 30.03 in 7.0 mi SE 5.8 mph - N/A   Scattered Clouds
4:55 AM 66.2 °F - 66.2 °F 100% 30.02 in 7.0 mi SE 5.8 mph - N/A   Scattered Clouds
4:56 AM 66.2 °F - 66.2 °F 100% 30.02 in 7.0 mi SE 5.8 mph - N/A   Scattered Clouds
5:15 AM 66.2 °F - 66.2 °F 100% 30.02 in 5.0 mi SE 3.5 mph - N/A   Clear
5:37 AM 66.2 °F - 66.2 °F 100% 30.02 in 4.0 mi ESE 3.5 mph - N/A   Scattered Clouds
5:55 AM 66.2 °F - 66.2 °F 100% 30.01 in 5.0 mi ESE 4.6 mph - N/A   Scattered Clouds
6:15 AM 66.2 °F - 66.2 °F 100% 30.02 in 5.0 mi SE 4.6 mph - N/A   Clear
6:16 AM 66.2 °F - 66.2 °F 100% 30.02 in 5.0 mi SE 4.6 mph - N/A   Clear
6:35 AM 66.2 °F - 66.2 °F 100% 30.02 in 4.0 mi ESE 5.8 mph - N/A   Clear
6:36 AM 66.2 °F - 66.2 °F 100% 30.02 in 4.0 mi ESE 5.8 mph - N/A   Clear
6:58 AM 66.2 °F - 66.2 °F 100% 30.02 in 3.0 mi SE 4.6 mph - N/A   Clear
7:16 AM 66.2 °F - 66.2 °F 100% 30.03 in 4.0 mi ESE 4.6 mph - N/A   Scattered Clouds
7:36 AM 66.2 °F - 66.2 °F 100% 30.03 in 4.0 mi ESE 6.9 mph - N/A   Scattered Clouds
7:55 AM 68.0 °F - 68.0 °F 100% 30.03 in 5.0 mi SE 8.1 mph - N/A   Scattered Clouds
8:15 AM 69.8 °F - 69.8 °F 100% 30.03 in 5.0 mi SE 8.1 mph - N/A   Mostly Cloudy
8:19 AM 69.8 °F - 69.8 °F 100% 30.03 in 5.0 mi SE 6.9 mph - N/A   Mostly Cloudy
8:37 AM 71.6 °F - 71.6 °F 100% 30.02 in 7.0 mi SE 8.1 mph - N/A   Scattered Clouds
8:56 AM 71.6 °F - 71.6 °F 100% 30.02 in 7.0 mi SE 8.1 mph - N/A   Scattered Clouds
9:15 AM 71.6 °F - 71.6 °F 100% 30.01 in 10.0 mi SE 8.1 mph - N/A   Overcast
9:16 AM 71.6 °F - 71.6 °F 100% 30.01 in 10.0 mi SE 8.1 mph - N/A   Overcast
9:35 AM 73.4 °F - 73.4 °F 100% 30.01 in 7.0 mi SE 6.9 mph - N/A   Mostly Cloudy
9:58 AM 75.2 °F - 73.4 °F 94% 30.01 in 10.0 mi SSE 8.1 mph - N/A   Scattered Clouds
10:16 AM 77.0 °F - 73.4 °F 89% 30.01 in 10.0 mi SE 5.8 mph - N/A   Scattered Clouds
10:36 AM 78.8 °F - 73.4 °F 83% 30.00 in 10.0 mi SSE 9.2 mph - N/A   Scattered Clouds
10:55 AM 80.6 °F 85.4 °F 73.4 °F 79% 30.00 in 10.0 mi SSE 6.9 mph - N/A   Clear
10:56 AM 80.6 °F 85.4 °F 73.4 °F 79% 30.00 in 10.0 mi SE 8.1 mph - N/A   Clear
11:15 AM 80.6 °F 85.4 °F 73.4 °F 79% 29.99 in 10.0 mi SSE 9.2 mph - N/A   Clear
11:19 AM 80.6 °F 85.4 °F 73.4 °F 79% 29.99 in 10.0 mi SE 8.1 mph - N/A   Clear
11:37 AM 82.4 °F 88.2 °F 73.4 °F 74% 29.98 in 10.0 mi SSE 4.6 mph - N/A   Clear
11:55 AM 82.4 °F 88.2 °F 73.4 °F 74% 29.98 in 10.0 mi SE 10.4 mph 17.3 mph N/A   Clear
12:15 PM 82.4 °F 87.2 °F 71.6 °F 70% 29.96 in 10.0 mi SSE 8.1 mph - N/A   Clear
12:35 PM 82.4 °F 87.2 °F 71.6 °F 70% 29.96 in 10.0 mi SE 9.2 mph - N/A   Clear
12:36 PM 82.4 °F 87.2 °F 71.6 °F 70% 29.96 in 10.0 mi SE 10.4 mph - N/A   Clear
12:58 PM 84.2 °F 89.6 °F 71.6 °F 66% 29.96 in 10.0 mi SSE 9.2 mph - N/A   Clear
1:16 PM 84.2 °F 89.6 °F 71.6 °F 66% 29.95 in 10.0 mi SE 10.4 mph - N/A   Clear
1:35 PM 84.2 °F 89.6 °F 71.6 °F 66% 29.95 in 10.0 mi SE 9.2 mph - N/A   Clear
1:36 PM 84.2 °F 89.6 °F 71.6 °F 66% 29.95 in 10.0 mi SE 9.2 mph - N/A   Clear
1:55 PM 84.2 °F 89.6 °F 71.6 °F 66% 29.94 in 10.0 mi SE 8.1 mph - N/A   Clear
1:56 PM 84.2 °F 89.6 °F 71.6 °F 66% 29.94 in 10.0 mi SE 6.9 mph - N/A   Clear
2:18 PM 86.0 °F 91.8 °F 71.6 °F 62% 29.94 in 10.0 mi SSE 6.9 mph - N/A   Clear
2:36 PM 87.8 °F 93.8 °F 71.6 °F 58% 29.94 in 10.0 mi SE 11.5 mph - N/A   Clear
3:04 PM 86.0 °F 91.8 °F 71.6 °F 62% 29.94 in 10.0 mi SE 10.4 mph - N/A   Clear
3:15 PM 86.0 °F 91.8 °F 71.6 °F 62% 29.94 in 10.0 mi SE 6.9 mph - N/A   Clear
3:16 PM 86.0 °F 91.8 °F 71.6 °F 62% 29.94 in 10.0 mi SE 6.9 mph - N/A   Clear
3:35 PM 84.2 °F 90.9 °F 73.4 °F 70% 29.94 in 10.0 mi SE 12.7 mph - N/A   Clear
3:39 PM 84.2 °F 90.9 °F 73.4 °F 70% 29.94 in 10.0 mi SE 13.8 mph - N/A   Clear
3:57 PM 87.8 °F 95.6 °F 73.4 °F 62% 29.93 in 10.0 mi SE 8.1 mph - N/A   Clear
4:15 PM 87.8 °F 95.6 °F 73.4 °F 62% 29.93 in 10.0 mi SE 12.7 mph - N/A   Clear
4:35 PM 87.8 °F 95.6 °F 73.4 °F 62% 29.92 in 10.0 mi SE 11.5 mph 18.4 mph N/A   Clear
4:36 PM 87.8 °F 95.6 °F 73.4 °F 62% 29.92 in 10.0 mi SE 11.5 mph 18.4 mph N/A   Clear
4:55 PM 87.8 °F 95.6 °F 73.4 °F 62% 29.92 in 10.0 mi SE 10.4 mph 16.1 mph N/A   Clear
4:56 PM 87.8 °F 95.6 °F 73.4 °F 62% 29.92 in 10.0 mi SE 11.5 mph 16.1 mph N/A   Clear
5:19 PM 87.8 °F 95.6 °F 73.4 °F 62% 29.92 in 10.0 mi SE 10.4 mph 18.4 mph N/A   Clear
5:36 PM 87.8 °F 95.6 °F 73.4 °F 62% 29.92 in 10.0 mi SE 9.2 mph - N/A   Clear
5:56 PM 86.0 °F 93.4 °F 73.4 °F 66% 29.91 in 10.0 mi SE 9.2 mph - N/A   Clear
6:15 PM 84.2 °F 90.9 °F 73.4 °F 70% 29.91 in 10.0 mi SE 8.1 mph - N/A   Clear
6:16 PM 84.2 °F 90.9 °F 73.4 °F 70% 29.91 in 10.0 mi SE 6.9 mph - N/A   Clear
6:35 PM 84.2 °F 90.9 °F 73.4 °F 70% 29.90 in 10.0 mi SE 8.1 mph - N/A   Clear
6:57 PM 82.4 °F 88.2 °F 73.4 °F 74% 29.90 in 10.0 mi SE 8.1 mph - N/A   Clear
7:15 PM 80.6 °F 85.4 °F 73.4 °F 79% 29.90 in 10.0 mi SE 8.1 mph - N/A   Clear
7:35 PM 78.8 °F - 73.4 °F 83% 29.90 in 10.0 mi SE 6.9 mph - N/A   Clear
7:36 PM 78.8 °F - 73.4 °F 83% 29.90 in 10.0 mi SE 8.1 mph - N/A   Clear
7:55 PM 78.8 °F - 73.4 °F 83% 29.90 in 10.0 mi SE 6.9 mph - N/A   Clear
7:56 PM 78.8 °F - 73.4 °F 83% 29.90 in 10.0 mi SE 8.1 mph - N/A   Clear
8:18 PM 78.8 °F - 73.4 °F 83% 29.90 in 10.0 mi SE 9.2 mph - N/A   Clear
8:36 PM 78.8 °F - 73.4 °F 83% 29.89 in 10.0 mi SE 10.4 mph - N/A   Clear
8:55 PM 78.8 °F - 73.4 °F 83% 29.89 in 10.0 mi SE 9.2 mph - N/A   Clear
8:56 PM 78.8 °F - 73.4 °F 83% 29.89 in 10.0 mi SE 9.2 mph - N/A   Clear
9:15 PM 78.8 °F - 73.4 °F 83% 29.89 in 10.0 mi SE 9.2 mph - N/A   Clear
9:39 PM 78.8 °F - 71.6 °F 78% 29.89 in 10.0 mi SE 10.4 mph 18.4 mph N/A   Clear
9:56 PM 77.0 °F - 71.6 °F 83% 29.89 in 10.0 mi SE 10.4 mph 16.1 mph N/A   Clear
10:16 PM 77.0 °F - 71.6 °F 83% 29.88 in 10.0 mi SE 10.4 mph 18.4 mph N/A   Clear
10:35 PM 77.0 °F - 71.6 °F 83% 29.88 in 10.0 mi SSE 9.2 mph - N/A   Clear
10:36 PM 77.0 °F - 71.6 °F 83% 29.88 in 10.0 mi SSE 10.4 mph - N/A   Clear
10:55 PM 77.0 °F - 71.6 °F 83% 29.87 in 10.0 mi SSE 9.2 mph 16.1 mph N/A   Clear
10:59 PM 77.0 °F - 71.6 °F 83% 29.87 in 10.0 mi SE 9.2 mph 16.1 mph N/A   Clear
11:16 PM 77.0 °F - 71.6 °F 83% 29.87 in 10.0 mi SSE 10.4 mph 17.3 mph N/A   Clear
11:35 PM 77.0 °F - 71.6 °F 83% 29.87 in 10.0 mi SSE 9.2 mph - N/A   Clear
11:55 PM 77.0 °F - 69.8 °F 78% 29.87 in 10.0 mi SSE 9.2 mph 17.3 mph N/A   Clear
11:56 PM 77.0 °F - 71.6 °F 83% 29.87 in 10.0 mi SSE 9.2 mph 17.3 mph N/A   Clear